15min,AgWx,beryljct,423,28OCT2020:00:00:00,28.3,12.82,27.8,27.6,27.2,28.2,25.6,36,40,34,0.179,4.0,4.9,3.3,6.73,5.2,313,15,9.4,0.00014,0.00018,41.3,46.6,9,0,.,.,4.24,0.00,0.00
15min,AgWx,beryljct,423,28OCT2020:00:15:00,28.3,12.81,28.3,27.8,27.9,28.3,27.3,36,37,35,0.190,4.1,4.9,3.6,4.626,6.0,319,9.1,7.9,0.00017,0.00022,41.1,46.6,9,0,.,.,4.24,0.00,0.00
15min,AgWx,beryljct,423,28OCT2020:00:30:00,28.2,12.8,29.9,28.9,28.5,29.3,27.7,35,37,34,0.185,4.4,4.9,4.0,6.182,5.5,324,9.6,7.0,0.00016,0.00021,40.9,46.5,9,0,.,.,4.24,0.00,0.00
15min,AgWx,beryljct,423,28OCT2020:00:45:00,28.5,12.79,32.0,32.3,30.6,32.6,28.8,33,35,30,0.186,4.7,5.5,4.0,6.533,6.0,344,18,9.3,0.00019,0.00025,40.7,46.5,8,0,.,.,4.24,0.00,0.00
15min,AgWx,beryljct,423,28OCT2020:01:00:00,29.0,12.78,29.2,29.1,30.5,32.3,28.8,33,37,30,0.193,4.7,5.6,4.1,2.762,3.4,352,36,6.6,0.00008,0.00013,40.6,46.4,8,0,.,.,4.24,0.00,0.00
15min,AgWx,beryljct,423,28OCT2020:01:15:00,28.9,12.78,30.7,29.6,29.3,30.3,28.6,35,37,33,0.187,5.2,5.6,4.5,4.319,3.3,337,46,5.2,0.00006,0.00010,40.4,46.4,9,0,.,.,4.24,0.00,0.00
15min,AgWx,beryljct,423,28OCT2020:01:30:00,28.5,12.77,27.0,27.0,27.8,30.0,26.8,36,38,34,0.189,4.5,5.2,4.0,1.315,3.0,35,18,5.0,0.00004,0.00008,40.3,46.3,8,0,.,.,4.24,0.00,0.00
15min,AgWx,beryljct,423,28OCT2020:01:45:00,28.0,12.77,28.1,28.2,28.2,29.6,26.9,37,39,34,0.196,5.1,5.6,4.7,4.384,3.4,331,17,5.7,0.00006,0.00010,40.1,46.3,8,0,.,.,4.24,0.00,0.00
15min,AgWx,beryljct,423,28OCT2020:02:00:00,27.8,12.75,28.6,28.3,28.2,28.9,27.4,37,39,36,0.198,5.4,5.8,5.2,3.113,3.0,328,20,5.0,0.00004,0.00007,40.0,46.2,9,0,.,.,4.24,0.00,0.00
15min,AgWx,beryljct,423,28OCT2020:02:15:00,27.6,12.74,29.8,29.8,29.2,30.3,27.4,37,41,35,0.202,6.2,6.8,5.8,1.271,2.1,297,26,4.6,-0.00002,-0.00001,39.8,46.2,8,0,.,.,4.24,0.00,0.00
15min,AgWx,beryljct,423,28OCT2020:02:30:00,27.6,12.74,29.3,29.2,29.6,31.2,28.1,37,41,34,0.206,6.5,7.4,5.9,5.678,3.8,298,7.3,6.0,0.00009,0.00013,39.7,46.2,8,0,.,.,4.24,0.00,0.00
15min,AgWx,beryljct,423,28OCT2020:02:45:00,27.3,12.73,30.1,28.8,27.0,29.3,24.9,41,43,38,0.218,6.3,7.9,5.3,6.072,5.7,292,8.5,7.1,0.00013,0.00018,39.6,46.1,8,0,.,.,4.24,0.00,0.00
15min,AgWx,beryljct,423,28OCT2020:03:00:00,27.3,12.72,29.3,28.9,29.5,30.8,28.4,40,42,38,0.214,8.2,9.0,7.5,3.661,4.8,303,27,7.1,0.00012,0.00017,39.5,46.1,8,0,.,.,4.24,0.00,0.00
15min,AgWx,beryljct,423,28OCT2020:03:15:00,27.3,12.7,26.8,26.9,28.1,29.2,26.9,40,41,39,0.196,6.9,7.7,5.5,4.121,3.8,342,9.1,5.0,0.00007,0.00011,39.3,46.0,9,0,.,.,4.24,0.00,0.00
15min,AgWx,beryljct,423,28OCT2020:03:30:00,26.9,12.69,23.3,22.9,24.4,27.0,22.2,44,48,39,0.196,5.4,6.0,4.6,3.354,3.7,332,9.0,5.0,0.00005,0.00008,39.2,46.0,9,0,.,.,4.24,0.00,0.00
15min,AgWx,beryljct,423,28OCT2020:03:45:00,25.8,12.68,24.5,23.2,23.1,24.2,21.6,46,49,43,0.195,5.2,6.4,4.5,0,2.1,320,25,3.8,-0.00003,-0.00002,39.1,45.9,8,0,.,.,4.25,0.00,0.00
15min,AgWx,beryljct,423,28OCT2020:04:00:00,24.9,12.65,28.4,28.0,25.0,28.2,22.8,48,53,43,0.226,7.8,9.6,4.9,4.494,2.6,297,45,5.2,-0.00001,0.00001,38.9,45.8,9,0,.,.,4.25,0.00,0.00
15min,AgWx,beryljct,423,28OCT2020:04:15:00,24.8,12.64,24.9,24.8,26.0,29.4,23.8,45,47,41,0.210,7.4,9.0,5.7,1.513,2.9,306,15,4.4,0.00002,0.00004,38.8,45.8,8,0,.,.,4.25,0.00,0.00
15min,AgWx,beryljct,423,28OCT2020:04:30:00,24.3,12.62,23.9,22.9,25.0,27.1,22.9,48,51,44,0.211,8.2,9.3,6.6,3.464,1.2,26,65,3.5,-0.00010,-0.00013,38.7,45.7,9,0,.,.,4.25,0.00,0.00
15min,AgWx,beryljct,423,28OCT2020:04:45:00,23.9,12.61,17.8,18.4,23.3,24.9,18.4,48,52,44,0.175,6.6,8.2,3.1,4.757,4.0,27,40,6.7,0.00005,0.00008,38.5,45.6,9,0,.,.,4.25,0.00,0.00
15min,AgWx,beryljct,423,28OCT2020:05:00:00,22.8,12.59,21.6,20.4,17.6,20.4,16.2,53,59,49,0.185,3.5,4.7,2.1,2.192,2.5,306,8.6,4.5,-0.00002,-0.00001,38.4,45.6,9,0,.,.,4.25,0.00,0.00
15min,AgWx,beryljct,423,28OCT2020:05:15:00,21.9,12.59,21.0,20.2,20.6,22.1,19.5,53,58,49,0.211,6.3,8.3,4.3,0,1.1,296,3.0,2.4,-0.00010,-0.00012,38.3,45.5,9,0,.,.,4.25,0.00,0.00
15min,AgWx,beryljct,423,28OCT2020:05:30:00,21.1,12.58,19.4,19.1,20.4,21.4,19.1,53,57,48,0.178,6.0,7.8,3.4,0.943,0.7,161,46,2.7,-0.00013,-0.00017,38.1,45.5,8,0,.,.,4.25,0.00,0.00
15min,AgWx,beryljct,423,28OCT2020:05:45:00,20.5,12.57,16.0,16.1,18.3,19.6,16.1,56,61,50,0.177,5.2,6.3,3.3,3.025,2.1,187,54,4.8,-0.00004,-0.00004,38.0,45.4,8,0,.,.,4.26,0.00,0.00
15min,AgWx,beryljct,423,28OCT2020:06:00:00,19.8,12.56,18.7,17.2,17.0,19.2,15.1,53,56,49,0.178,2.8,5.4,0.8,1.6,2.3,323,11,3.3,-0.00003,-0.00002,37.8,45.3,9,0,.,.,4.25,0.00,0.00
15min,AgWx,beryljct,423,28OCT2020:06:15:00,19.3,12.55,24.7,22.8,17.9,22.8,15.3,57,59,53,0.222,5.1,8.9,3.0,1.885,1.5,52,80,6.4,0.00008,0.00014,37.7,45.3,9,0,.,.,4.25,0.00,0.00
15min,AgWx,beryljct,423,28OCT2020:06:30:00,19.7,12.55,24.6,23.7,25.3,26.5,23.0,48,53,46,0.226,8.5,9.3,8.0,4.647,3.7,325,10,5.3,0.00025,0.00044,37.6,45.2,8,0,.,.,4.25,0.00,0.00
15min,AgWx,beryljct,423,28OCT2020:06:45:00,20.6,12.54,28.2,26.0,25.1,26.3,23.8,49,52,46,0.224,8.5,9.2,7.6,1.184,2.3,316,19,5.0,0.00018,0.00030,37.4,45.2,8,1,.,.,4.25,0.00,0.00
15min,AgWx,beryljct,423,28OCT2020:07:00:00,21.2,12.55,21.8,22.1,25.1,27.9,22.1,48,53,43,0.206,8.1,8.8,6.6,4.012,3.2,339,19,5.7,0.00024,0.00041,37.3,45.1,8,4,.,.,4.25,0.00,0.00
15min,AgWx,beryljct,423,28OCT2020:07:15:00,21.2,12.68,21.9,22.2,20.1,23.2,17.5,54,58,49,0.204,6.0,7.9,4.7,4.647,4.8,329,14,7.2,0.00031,0.00049,37.1,45.0,8,27,.,.,4.25,0.00,0.00
15min,AgWx,beryljct,423,28OCT2020:07:30:00,22.0,13.01,24.4,25.0,23.0,25.2,21.7,50,51,46,0.213,6.9,8.2,6.0,5.349,4.8,351,12,6.0,0.00045,0.00067,37.0,45.0,9,69,.,.,4.25,0.00,0.00
15min,AgWx,beryljct,423,28OCT2020:07:45:00,23.4,13.48,26.0,25.1,23.2,25.1,22.2,49,51,46,0.227,6.9,8.8,6.0,4.954,5.1,344,9.9,6.3,0.00054,0.00078,36.9,44.9,9,109,.,.,4.25,0.00,0.00
15min,AgWx,beryljct,423,28OCT2020:08:00:00,25.5,14.34,29.6,29.0,27.0,29.0,25.1,45,49,43,0.231,8.4,9.6,7.8,5.787,4.6,349,15,6.3,0.00070,0.00097,36.8,44.8,9,150,.,.,4.25,0.00,0.00
15min,AgWx,beryljct,423,28OCT2020:08:15:00,28.4,14.78,32.7,31.8,30.6,31.8,28.9,39,42,37,0.227,8.5,9.0,8.2,4.713,4.5,1.6,21,6.2,0.00092,0.00125,36.7,44.7,9,194,.,.,4.25,0.00,0.00
15min,AgWx,beryljct,423,28OCT2020:08:30:00,31.5,14.76,33.4,33.2,32.6,33.3,31.9,36,38,35,0.227,8.9,9.7,8.3,3.508,3.8,38,14,6.6,0.00108,0.00141,36.6,44.7,9,239,.,.,4.25,0.00,0.00
15min,AgWx,beryljct,423,28OCT2020:08:45:00,34.4,14.75,36.9,36.1,34.5,36.1,33.2,34,36,33,0.237,9.1,9.7,8.5,3.771,4.2,21,12,5.6,0.00130,0.00169,36.6,44.6,9,284,.,.,4.25,0.00,0.00
15min,AgWx,beryljct,423,28OCT2020:09:00:00,37.5,14.62,41.3,40.4,38.6,40.5,36.1,32,33,31,0.266,11.3,12.8,9.7,9.23,7.1,51,15,11.9,0.00174,0.00238,36.6,44.5,9,330,.,.,4.25,0.00,0.00
15min,AgWx,beryljct,423,28OCT2020:09:15:00,40.5,14.6,41.3,41.5,41.1,41.7,40.3,31,32,31,0.277,13.0,13.9,11.9,10.79,9.4,61,9.3,11.9,0.00209,0.00291,36.6,44.5,9,374,.,.,4.24,0.00,0.00
15min,AgWx,beryljct,423,28OCT2020:09:30:00,42.8,14.55,42.2,42.1,42.1,42.7,41.4,31,32,31,0.284,13.8,14.7,13.2,7.826,10.0,57,7.9,12.8,0.00229,0.00317,36.7,44.4,8,415,.,.,4.24,0.00,0.00
15min,AgWx,beryljct,423,28OCT2020:09:45:00,44.7,14.59,42.9,43.7,43.0,44.1,42.2,31,32,30,0.296,14.6,16.0,13.5,10.85,9.6,55,8.9,12.7,0.00245,0.00333,36.8,44.3,9,453,.,.,4.24,0.00,0.00
15min,AgWx,beryljct,423,28OCT2020:10:00:00,46.3,14.61,44.3,44.8,44.6,45.5,43.5,30,32,30,0.307,15.4,16.9,14.5,12.67,12.0,59,11,16.4,0.00274,0.00380,37.0,44.3,9,490,.,.,4.24,0.00,0.00
15min,AgWx,beryljct,423,28OCT2020:10:15:00,47.5,14.56,45.3,45.7,45.3,45.9,44.6,30,31,29,0.310,15.5,16.5,15.0,12.61,12.3,69,9.9,15.4,0.00292,0.00403,37.3,44.2,9,523,.,.,4.24,0.00,0.00
15min,AgWx,beryljct,423,28OCT2020:10:30:00,48.5,14.04,46.7,47.6,46.5,48.0,45.6,30,30,29,0.331,16.4,17.9,15.4,12.61,11.9,67,10,15.0,0.00308,0.00421,37.6,44.1,9,553,.,.,4.24,0.00,0.00
15min,AgWx,beryljct,423,28OCT2020:10:45:00,49.7,14.03,50.5,48.9,47.8,48.9,46.7,29,30,28,0.346,17.4,18.9,15.6,10.81,11.6,64,11,15.8,0.00326,0.00441,38.0,44.1,8,580,.,.,4.24,0.00,0.00
15min,AgWx,beryljct,423,28OCT2020:11:00:00,50.9,14.04,50.0,50.2,49.0,50.2,48.3,29,30,28,0.363,18.0,19.5,17.1,11.64,12.2,60,14,15.7,0.00344,0.00467,38.4,44.0,8,603,.,.,4.23,0.00,0.00
15min,AgWx,beryljct,423,28OCT2020:11:15:00,52.2,14,51.0,50.7,50.2,51.3,49.1,29,30,27,0.353,18.8,20.7,17.1,10.83,10.8,60,14,15.9,0.00355,0.00474,38.8,44.0,8,622,.,.,4.23,0.00,0.00
15min,AgWx,beryljct,423,28OCT2020:11:30:00,53.6,13.97,51.6,51.2,51.4,52.8,50.0,28,30,27,0.361,19.7,21.8,17.5,8.33,9.1,53,16,14.0,0.00363,0.00473,39.3,44.0,8,637,.,.,4.23,0.00,0.00
15min,AgWx,beryljct,423,28OCT2020:11:45:00,54.8,13.96,54.0,52.3,52.1,53.1,50.9,28,29,27,0.373,19.9,21.5,18.6,6.993,10.0,51,18,14.2,0.00375,0.00495,39.8,43.9,8,650,.,.,4.22,0.00,0.00
15min,AgWx,beryljct,423,28OCT2020:12:00:00,55.9,14,52.0,53.3,53.1,54.2,51.5,28,29,26,0.374,20.5,22.3,18.6,12.58,8.0,53,17,13.2,0.00378,0.00485,40.4,43.9,9,658,.,.,4.23,0.00,0.00
15min,AgWx,beryljct,423,28OCT2020:12:15:00,56.8,13.92,53.8,54.0,53.9,54.7,52.6,27,29,26,0.379,20.5,22.8,18.9,11,10.4,47,18,16.2,0.00398,0.00527,40.9,43.9,8,662,.,.,4.22,0.00,0.00
15min,AgWx,beryljct,423,28OCT2020:12:30:00,57.6,13.92,56.3,55.0,54.9,55.7,53.9,26,29,25,0.392,20.8,22.8,19.8,10.04,11.0,39,12,15.0,0.00409,0.00546,41.5,43.9,9,662,.,.,4.22,0.00,0.00
15min,AgWx,beryljct,423,28OCT2020:12:45:00,58.5,13.87,56.2,56.7,56.1,57.3,55.1,26,27,25,0.386,21.5,23.4,20.0,11.9,11.9,46,12,16.4,0.00420,0.00568,42.1,43.9,8,658,.,.,4.23,0.01,0.00
15min,AgWx,beryljct,423,28OCT2020:13:00:00,59.3,13.92,58.1,57.5,56.8,57.6,56.1,25,27,24,0.404,21.7,23.2,20.3,15.61,12.5,49,14,17.3,0.00427,0.00582,42.7,44.0,8,651,.,.,4.22,0.00,0.00
15min,AgWx,beryljct,423,28OCT2020:13:15:00,60.3,13.88,59.4,58.9,58.5,59.4,57.0,25,26,23,0.401,22.4,23.7,20.6,14.14,13.7,48,14,19.8,0.00442,0.00613,43.4,44.0,8,640,.,.,4.22,0.00,0.00
15min,AgWx,beryljct,423,28OCT2020:13:30:00,61.1,13.82,59.2,59.5,58.9,59.9,58.3,24,25,23,0.391,21.8,23.6,20.9,16.27,16.0,43,15,20.9,0.00454,0.00643,44.0,44.1,8,625,.,.,4.22,0.00,0.00
15min,AgWx,beryljct,423,28OCT2020:13:45:00,61.8,13.79,60.4,60.0,59.4,60.1,58.7,23,24,22,0.400,21.9,23.2,20.9,14.89,14.8,36,9.8,21.5,0.00445,0.00629,44.5,44.1,8,606,.,.,4.22,0.00,0.00
15min,AgWx,beryljct,423,28OCT2020:14:00:00,62.4,13.77,59.7,59.6,59.6,60.1,59.0,23,23,22,0.404,21.6,22.5,20.4,17.41,15.7,40,11,21.7,0.00442,0.00633,45.1,44.2,8,584,.,.,4.22,0.00,0.00
15min,AgWx,beryljct,423,28OCT2020:14:15:00,62.8,13.78,60.2,59.2,59.5,60.1,58.9,23,24,22,0.407,21.9,23.5,20.2,12.06,15.5,49,9.5,20.6,0.00413,0.00601,45.6,44.3,9,524,.,.,4.22,0.00,0.00
15min,AgWx,beryljct,423,28OCT2020:14:30:00,63.0,13.85,59.8,59.6,59.6,60.4,59.0,23,24,22,0.391,21.7,22.9,20.6,16.46,15.7,49,12,21.2,0.00417,0.00606,46.1,44.4,8,530,.,.,4.22,0.00,0.00
15min,AgWx,beryljct,423,28OCT2020:14:45:00,63.2,13.74,59.3,59.7,59.5,59.8,59.2,23,24,22,0.387,21.2,22.8,20.5,16.53,15.5,44,10,21.4,0.00398,0.00586,46.6,44.4,9,489,.,.,4.22,0.00,0.00
15min,AgWx,beryljct,423,28OCT2020:15:00:00,63.3,13.74,59.2,59.5,59.7,60.3,59.3,22,23,22,0.382,21.2,22.6,20.0,18.46,15.0,47,10,19.8,0.00386,0.00571,47.0,44.6,8,463,.,.,4.22,0.00,0.00
15min,AgWx,beryljct,423,28OCT2020:15:15:00,63.3,13.74,59.3,59.2,59.5,60.0,59.1,22,23,21,0.384,21.0,22.1,19.9,16.09,16.0,54,12,20.8,0.00375,0.00565,47.4,44.7,8,425,.,.,4.22,0.00,0.00
15min,AgWx,beryljct,423,28OCT2020:15:30:00,63.2,13.74,59.3,59.3,59.4,59.8,59.0,23,24,22,0.380,21.1,22.1,20.1,19.55,15.4,56,11,20.6,0.00351,0.00534,47.8,44.8,8,386,.,.,4.22,0.00,0.00
15min,AgWx,beryljct,423,28OCT2020:15:45:00,62.9,13.74,59.4,59.1,59.1,59.4,58.7,22,23,22,0.376,20.5,22.0,19.9,16.18,16.2,58,8.3,20.7,0.00339,0.00528,48.1,45.0,8,344,.,.,4.22,0.00,0.00
15min,AgWx,beryljct,423,28OCT2020:16:00:00,62.6,13.79,59.1,58.6,58.9,59.3,58.5,22,23,21,0.386,20.2,21.1,19.6,13.53,16.1,49,8.3,21.4,0.00318,0.00505,48.3,45.1,9,300,.,.,4.22,0.00,0.00
15min,AgWx,beryljct,423,28OCT2020:16:15:00,62.2,13.78,58.3,58.4,58.5,58.9,58.3,22,23,22,0.369,20.0,21.2,19.4,17.27,16.2,51,7.3,20.5,0.00296,0.00479,48.6,45.2,9,256,.,.,4.22,0.00,0.00
15min,AgWx,beryljct,423,28OCT2020:16:30:00,61.6,13.8,58.0,57.7,58.0,58.4,57.7,23,23,22,0.368,20.1,21.0,19.5,19.2,15.0,48,9.6,20.8,0.00263,0.00434,48.8,45.4,8,211,.,.,4.22,0.00,0.00
15min,AgWx,beryljct,423,28OCT2020:16:45:00,61.0,13.83,56.8,57.1,57.4,57.7,57.0,23,23,22,0.370,19.8,20.3,19.3,11.57,15.2,45,8.8,18.9,0.00116,0.00135,48.9,45.6,8,167,.,.,4.22,0.00,0.00
15min,AgWx,beryljct,423,28OCT2020:17:00:00,60.1,13.86,56.2,55.7,56.5,57.0,55.7,24,25,23,0.370,20.1,21.0,19.5,16,13.8,45,8.2,21.6,0.00103,0.00122,49.0,45.7,9,125,.,.,4.22,0.00,0.00
15min,AgWx,beryljct,423,28OCT2020:17:15:00,58.8,13.85,55.3,54.8,55.4,56.0,54.8,25,25,24,0.368,19.9,20.3,19.5,17.25,13.7,50,8.1,17.7,0.00094,0.00112,49.0,45.8,9,85,.,.,4.22,0.00,0.00
15min,AgWx,beryljct,423,28OCT2020:17:30:00,57.2,13.13,52.7,52.9,53.8,54.9,52.9,26,27,25,0.364,19.7,20.1,19.3,11.53,12.6,50,7.4,17.2,0.00079,0.00095,49.0,46.0,9,26,.,.,4.22,0.00,0.00
15min,AgWx,beryljct,423,28OCT2020:17:45:00,55.0,13.08,50.9,50.7,51.7,52.8,50.7,28,29,27,0.359,19.4,19.7,19.2,10.72,10.3,52,7.6,13.5,0.00062,0.00077,49.0,46.1,8,7,.,.,4.23,0.00,0.00
15min,AgWx,beryljct,423,28OCT2020:18:00:00,52.9,13.05,49.3,49.8,50.4,50.8,49.8,29,29,28,0.356,19.1,19.3,18.9,7.87,9.7,57,8.3,12.1,0.00056,0.00070,48.9,46.2,8,2,.,.,4.22,0.00,0.00
15min,AgWx,beryljct,423,28OCT2020:18:15:00,51.0,13.03,46.5,46.5,48.1,49.8,46.5,31,33,29,0.352,19.0,19.2,18.7,5.196,6.3,61,5.7,9.8,0.00035,0.00047,48.8,46.4,8,0,.,.,4.23,0.00,0.00
15min,AgWx,beryljct,423,28OCT2020:18:30:00,48.7,13.01,44.9,44.6,45.3,46.6,44.4,33,34,32,0.333,18.2,18.9,17.5,4.012,4.5,41,5.5,5.6,0.00021,0.00030,48.6,46.5,8,0,.,.,4.23,0.00,0.00
15min,AgWx,beryljct,423,28OCT2020:18:45:00,46.6,13,44.1,43.3,44.0,44.9,43.3,33,35,33,0.322,17.0,17.5,16.5,3.968,3.7,50,5.7,5.0,0.00014,0.00021,48.4,46.6,8,0,.,.,4.23,0.00,0.00
15min,AgWx,beryljct,423,28OCT2020:19:00:00,44.9,12.99,43.4,43.5,43.2,43.7,42.7,35,36,33,0.339,17.2,18.0,16.5,5.064,5.1,51,9.7,7.6,0.00022,0.00031,48.3,46.7,9,0,.,.,4.23,0.00,0.00
15min,AgWx,beryljct,423,28OCT2020:19:15:00,44.1,12.97,41.6,42.1,43.2,43.8,42.1,36,38,35,0.348,18.1,18.5,17.8,5.217,6.2,63,6.2,8.3,0.00027,0.00036,48.0,46.8,8,0,.,.,4.23,0.00,0.00
15min,AgWx,beryljct,423,28OCT2020:19:30:00,43.1,12.97,40.6,41.0,41.5,42.1,40.9,39,39,38,0.339,18.1,18.6,17.7,3.464,4.1,55,8.5,6.1,0.00013,0.00020,47.7,46.9,9,0,.,.,4.23,0.00,0.00
15min,AgWx,beryljct,423,28OCT2020:19:45:00,42.0,12.96,39.9,39.6,40.6,41.2,39.5,39,41,39,0.337,17.9,18.2,17.6,2.653,3.6,69,9.6,6.1,0.00010,0.00015,47.5,47.0,9,0,.,.,4.23,0.00,0.00
15min,AgWx,beryljct,423,28OCT2020:20:00:00,40.9,12.96,40.9,40.1,39.5,40.1,39.0,41,42,39,0.326,17.5,17.8,16.9,2.192,2.2,36,24,3.9,-0.00002,-0.00000,47.3,47.1,9,0,.,.,4.23,0.00,0.00
15min,AgWx,beryljct,423,28OCT2020:20:15:00,40.2,12.95,40.3,40.3,40.2,40.5,39.5,38,39,38,0.322,16.8,17.0,16.6,0.899,1.9,6.4,18,3.1,-0.00005,-0.00004,47.0,47.2,8,0,.,.,4.23,0.00,0.00
15min,AgWx,beryljct,423,28OCT2020:20:30:00,39.4,12.92,40.2,40.3,40.3,40.7,40.0,39,39,38,0.327,17.1,17.6,16.6,2.543,1.9,10,23,3.9,-0.00005,-0.00004,46.7,47.3,9,0,.,.,4.23,0.00,0.00
15min,AgWx,beryljct,423,28OCT2020:20:45:00,39.4,12.92,43.0,42.9,41.7,43.4,39.6,39,42,37,0.354,18.6,19.3,16.9,5.502,5.2,48,19,9.0,0.00020,0.00027,46.4,47.3,9,0,.,.,4.23,0.00,0.00
15min,AgWx,beryljct,423,28OCT2020:21:00:00,39.9,12.92,40.5,40.6,42.1,43.0,40.6,39,41,38,0.354,18.8,19.0,18.7,0.986,4.7,63,6.1,7.7,0.00018,0.00025,46.2,47.3,9,0,.,.,4.23,0.00,0.00
15min,AgWx,beryljct,423,28OCT2020:21:15:00,39.6,12.91,40.7,39.9,40.5,41.4,39.0,41,43,39,0.347,18.5,18.9,18.0,1.798,1.2,231,56,3.0,-0.00014,-0.00018,45.9,47.4,9,0,.,.,4.23,0.00,0.00
15min,AgWx,beryljct,423,28OCT2020:21:30:00,39.1,12.91,42.8,42.2,40.4,42.4,38.0,41,44,38,0.346,18.4,18.9,17.0,2.126,2.0,157,62,5.2,-0.00004,-0.00003,45.7,47.4,8,0,.,.,4.24,0.00,0.00
15min,AgWx,beryljct,423,28OCT2020:21:45:00,38.7,12.89,40.5,39.9,41.3,43.0,38.7,39,42,36,0.337,18.1,18.4,17.5,1.556,1.1,33,48,2.8,-0.00015,-0.00019,45.4,47.4,9,0,.,.,4.24,0.00,0.00
15min,AgWx,beryljct,423,28OCT2020:22:00:00,38.1,12.9,41.9,41.3,40.1,41.3,38.6,40,42,37,0.328,17.5,17.9,17.1,2.411,2.2,293,16,2.6,-0.00002,-0.00000,45.2,47.5,8,0,.,.,4.24,0.00,0.00
15min,AgWx,beryljct,423,28OCT2020:22:15:00,37.8,12.88,34.6,36.8,40.2,41.4,36.8,39,44,37,0.324,17.1,17.3,16.5,2.105,2.9,300,6.3,4.3,0.00004,0.00008,45.0,47.5,9,0,.,.,4.24,0.00,0.00
15min,AgWx,beryljct,423,28OCT2020:22:30:00,37.2,12.88,34.3,33.7,37.6,40.6,33.7,42,47,38,0.307,16.7,17.9,15.4,6.116,4.8,307,6.7,6.7,0.00014,0.00020,44.7,47.5,9,0,.,.,4.24,0.01,0.00
15min,AgWx,beryljct,423,28OCT2020:22:45:00,36.2,12.87,33.4,32.9,33.2,34.6,31.9,48,50,46,0.309,15.7,16.3,15.2,3.661,4.2,318,14,6.7,0.00008,0.00012,44.5,47.5,9,0,.,.,4.24,0.00,0.00
15min,AgWx,beryljct,423,28OCT2020:23:00:00,35.6,12.86,38.1,37.0,35.7,37.2,32.9,45,49,42,0.323,16.6,17.6,15.8,4.713,5.0,320,7.8,6.5,0.00013,0.00018,44.3,47.5,9,0,.,.,4.24,0.00,0.00
15min,AgWx,beryljct,423,28OCT2020:23:15:00,35.2,12.85,31.6,31.3,34.5,37.5,31.3,47,52,43,0.307,16.1,17.1,15.3,5.086,5.5,320,6.9,6.5,0.00014,0.00019,44.0,47.5,9,0,.,.,4.24,0.00,0.00
15min,AgWx,beryljct,423,28OCT2020:23:30:00,34.4,12.85,32.8,34.2,32.6,34.9,31.2,50,52,46,0.311,16.0,16.6,15.4,4.998,5.0,313,14,7.2,0.00010,0.00014,43.8,47.4,8,0,.,.,4.24,0.00,0.00
15min,AgWx,beryljct,423,28OCT2020:23:45:00,34.1,12.84,36.3,36.1,35.1,36.7,32.7,46,50,44,0.329,16.6,17.5,15.4,4.362,5.6,315,12,7.5,0.00014,0.00020,43.7,47.4,9,0,.,.,4.24,0.00,0.00
15min,AgWx,bigpiney,439,28OCT2020:00:00:00,26.0,12.52,23.0,22.1,22.5,24.6,21.3,73,75,69,0.300,15.1,17.2,13.0,5.941,4.9,228,12,7.1,0.00000,0.00001,36.4,39.8,44,0,0,0.0,0.13,0.00,0.00
15min,AgWx,bigpiney,439,28OCT2020:00:15:00,25.4,12.51,24.2,24.0,25.5,28.9,22.2,69,75,63,0.306,16.6,19.0,14.8,6.007,5.4,238,6.8,6.1,0.00003,0.00005,36.4,39.8,44,0,0,0.0,0.13,0.00,0.00
15min,AgWx,bigpiney,439,28OCT2020:00:30:00,24.9,12.5,21.8,21.6,22.1,24.1,20.3,73,79,69,0.295,14.8,16.6,13.8,6.029,5.9,244,4.5,6.9,0.00002,0.00003,36.4,39.8,44,0,0,0.0,0.13,0.00,0.00
15min,AgWx,bigpiney,439,28OCT2020:00:45:00,24.6,12.5,22.6,24.1,24.0,26.3,21.0,73,77,68,0.308,16.4,18.1,14.1,3.003,3.8,258,16,5.8,-0.00002,-0.00001,36.4,39.8,44,0,0,0.0,0.13,0.00,0.00
15min,AgWx,bigpiney,439,28OCT2020:01:00:00,24.4,12.48,24.2,22.5,21.0,23.9,19.8,75,80,70,0.327,14.4,17.1,13.3,2.389,3.3,239,13,4.6,-0.00004,-0.00003,36.4,39.8,44,0,0,0.0,0.13,0.00,0.00
15min,AgWx,bigpiney,439,28OCT2020:01:15:00,23.9,12.48,22.1,19.6,19.0,23.1,17.4,79,83,73,0.303,13.5,17.1,12.0,2.609,3.8,219,22,5.5,-0.00003,-0.00003,36.4,39.8,44,0,0,0.0,0.13,0.00,0.00
15min,AgWx,bigpiney,439,28OCT2020:01:30:00,23.4,12.47,26.9,26.8,24.3,26.9,19.9,75,83,69,0.342,17.5,18.5,15.6,3.858,3.3,298,8.5,5.0,-0.00004,-0.00004,36.4,39.8,44,0,0,0.0,0.13,0.00,0.00
15min,AgWx,bigpiney,439,28OCT2020:01:45:00,23.6,12.46,29.8,29.6,28.2,29.6,26.6,68,70,65,0.362,18.9,19.5,18.0,2.653,3.0,319,11,4.4,-0.00003,-0.00003,36.4,39.7,44,0,0,0.0,0.13,0.00,0.00
15min,AgWx,bigpiney,439,28OCT2020:02:00:00,24.3,12.46,22.7,24.9,28.9,30.5,24.9,65,68,63,0.309,18.7,19.9,15.7,2.061,2.6,307,30,4.1,-0.00004,-0.00004,36.4,39.7,44,0,0,0.0,0.13,0.00,0.00
15min,AgWx,bigpiney,439,28OCT2020:02:15:00,24.6,12.44,25.3,23.5,22.5,25.4,20.2,74,81,68,0.331,15.6,18.0,13.8,4.253,3.4,254,12,5.4,-0.00003,-0.00003,36.4,39.8,44,0,0,0.0,0.13,0.00,0.00
15min,AgWx,bigpiney,439,28OCT2020:02:30:00,24.4,12.44,28.0,27.8,25.9,27.8,22.8,71,77,67,0.346,17.8,19.2,14.5,2.543,3.0,305,25,4.9,-0.00004,-0.00003,36.4,39.7,44,0,0,0.0,0.13,0.00,0.00
15min,AgWx,bigpiney,439,28OCT2020:02:45:00,24.3,12.44,26.7,27.0,27.0,27.8,26.5,67,68,67,0.333,17.7,18.3,17.1,4.954,3.5,284,8.9,5.1,-0.00001,-0.00000,36.4,39.8,44,0,0,0.0,0.13,0.00,0.00
15min,AgWx,bigpiney,439,28OCT2020:03:00:00,24.4,12.43,27.5,27.2,26.9,27.4,25.8,67,69,66,0.337,17.5,18.2,16.2,4.253,4.3,285,7.5,5.7,0.00001,0.00003,36.4,39.8,44,0,0,0.0,0.13,0.00,0.00
15min,AgWx,bigpiney,439,28OCT2020:03:15:00,24.5,12.43,20.7,20.5,25.3,27.6,20.5,69,75,67,0.283,16.5,18.4,13.1,5.546,4.5,261,24,6.0,0.00001,0.00002,36.4,39.7,44,0,0,0.0,0.13,0.00,0.00
15min,AgWx,bigpiney,439,28OCT2020:03:30:00,24.3,12.42,21.6,20.0,20.1,21.1,19.2,79,81,75,0.295,14.5,16.0,13.1,2.916,4.3,220,6.0,6.0,-0.00002,-0.00002,36.4,39.7,44,0,0,0.0,0.13,0.00,0.00
15min,AgWx,bigpiney,439,28OCT2020:03:45:00,23.7,12.4,21.9,21.0,21.3,23.6,20.1,78,81,72,0.302,15.4,17.7,13.2,4.056,2.9,223,11,5.7,-0.00005,-0.00006,36.4,39.7,44,0,0,0.0,0.13,0.00,0.00
15min,AgWx,bigpiney,439,28OCT2020:04:00:00,23.0,12.4,20.4,20.5,19.7,21.1,18.1,79,82,74,0.296,14.2,16.1,12.2,2.433,3.9,208,16,7.3,-0.00003,-0.00003,36.4,39.7,44,0,0,0.0,0.13,0.00,0.00
15min,AgWx,bigpiney,439,28OCT2020:04:15:00,22.6,12.39,22.2,21.8,21.2,23.9,18.9,77,82,73,0.305,15.2,18.1,13.2,6.379,4.3,249,19,6.4,-0.00002,-0.00002,36.4,39.7,44,0,0,0.0,0.13,0.00,0.00
15min,AgWx,bigpiney,439,28OCT2020:04:30:00,22.5,12.39,21.8,19.1,20.2,21.8,18.8,78,81,76,0.290,14.5,16.1,13.4,5.722,4.5,187,39,6.7,-0.00002,-0.00001,36.4,39.7,44,0,0,0.0,0.13,0.00,0.00
15min,AgWx,bigpiney,439,28OCT2020:04:45:00,22.2,12.37,24.0,24.5,19.5,26.9,17.2,80,85,66,0.300,14.4,20.3,12.1,2.389,4.4,212,33,6.5,-0.00002,-0.00002,36.4,39.7,44,0,0,0.0,0.13,0.00,0.00
15min,AgWx,bigpiney,439,28OCT2020:05:00:00,22.2,12.36,22.5,21.5,22.9,25.2,21.2,73,78,67,0.308,15.4,16.6,14.6,4.779,3.1,205,25,5.3,-0.00004,-0.00004,36.4,39.7,44,0,0,0.0,0.13,0.00,0.00
15min,AgWx,bigpiney,439,28OCT2020:05:15:00,22.3,12.37,24.0,23.3,21.5,23.3,19.5,76,79,73,0.320,15.1,16.9,13.2,4.275,3.9,188,19,6.2,-0.00002,-0.00002,36.4,39.7,44,0,0,0.0,0.13,0.00,0.00
15min,AgWx,bigpiney,439,28OCT2020:05:30:00,22.2,12.35,21.1,23.4,24.3,26.6,22.9,70,74,65,0.295,16.0,17.6,14.4,1.293,2.9,190,57,6.0,-0.00004,-0.00003,36.4,39.7,44,0,0,0.0,0.13,0.00,0.00
15min,AgWx,bigpiney,439,28OCT2020:05:45:00,22.1,12.36,26.3,24.9,23.0,24.9,21.9,72,74,68,0.323,15.3,16.7,14.0,2.083,2.1,241,37,3.9,-0.00007,-0.00008,36.4,39.7,44,0,0,0.0,0.13,0.00,0.00
15min,AgWx,bigpiney,439,28OCT2020:06:00:00,22.4,12.35,28.4,27.9,27.2,28.1,25.1,66,71,64,0.332,17.5,17.9,16.8,4.45,1.6,154,62,4.5,-0.00009,-0.00011,36.4,39.7,44,0,0,0.0,0.13,0.00,0.00
15min,AgWx,bigpiney,439,28OCT2020:06:15:00,23.1,12.34,27.4,27.2,27.2,27.9,26.5,66,68,64,0.335,17.2,17.8,16.8,1.535,5.5,70,20,7.6,0.00004,0.00006,36.4,39.7,44,0,0,0.0,0.13,0.00,0.00
15min,AgWx,bigpiney,439,28OCT2020:06:30:00,23.7,12.33,25.0,24.5,26.7,27.4,24.5,66,68,65,0.304,16.8,17.7,15.1,6.05,1.6,195,40,6.1,-0.00009,-0.00011,36.4,39.7,44,0,0,0.0,0.13,0.00,0.00
15min,AgWx,bigpiney,439,28OCT2020:06:45:00,23.6,12.32,22.3,21.6,21.6,24.5,19.8,73,77,67,0.304,14.2,15.6,12.7,5.634,5.3,201,10,7.0,0.00001,0.00002,36.4,39.7,44,2,0,0.0,0.13,0.00,0.00
15min,AgWx,bigpiney,439,28OCT2020:07:00:00,22.8,12.35,21.6,21.2,22.2,24.4,20.6,73,76,68,0.295,14.9,17.1,12.2,6.05,5.6,192,35,8.2,0.00002,0.00003,36.4,39.7,44,9,0,0.0,0.13,0.00,0.00
15min,AgWx,bigpiney,439,28OCT2020:07:15:00,22.5,12.74,19.9,19.8,19.8,21.2,19.2,77,79,75,0.290,13.9,14.7,13.3,3.902,5.0,203,11,6.4,-0.00003,0.00005,36.4,39.7,44,45,0,0.0,0.13,0.00,0.00
15min,AgWx,bigpiney,439,28OCT2020:07:30:00,22.5,13.18,23.1,22.5,20.6,22.5,19.6,79,79,78,0.321,15.0,16.6,13.9,4.757,5.3,211,6.7,7.2,0.00006,0.00015,36.4,39.7,44,79,0,0.0,0.13,0.00,0.00
15min,AgWx,bigpiney,439,28OCT2020:07:45:00,23.5,13.53,26.9,26.2,24.2,26.2,22.5,76,78,73,0.352,17.7,18.8,16.6,3.223,5.6,204,14,8.6,0.00019,0.00031,36.4,39.6,44,114,0,0.0,0.13,0.00,0.00
15min,AgWx,bigpiney,439,28OCT2020:08:00:00,25.3,14.96,28.7,27.9,26.9,27.9,25.7,72,74,69,0.370,19.1,19.9,18.3,1.776,4.7,193,16,7.0,0.00034,0.00048,36.4,39.7,44,154,0,0.0,0.13,0.00,0.00
15min,AgWx,bigpiney,439,28OCT2020:08:15:00,27.7,14.92,32.5,31.7,30.0,31.7,28.0,68,72,65,0.392,20.9,21.7,20.0,9.4,5.5,155,16,9.4,0.00054,0.00073,36.4,39.7,44,195,0,0.0,0.13,0.00,0.00
15min,AgWx,bigpiney,439,28OCT2020:08:30:00,30.6,14.89,37.6,36.8,34.8,36.8,31.8,59,65,54,0.402,22.0,22.8,21.3,6.116,7.3,148,14,10.6,0.00088,0.00123,36.4,39.6,44,237,0,0.0,0.13,0.00,0.00
15min,AgWx,bigpiney,439,28OCT2020:08:45:00,34.1,14.77,44.2,43.4,39.9,43.4,36.8,51,56,44,0.419,23.0,24.0,21.8,2.981,3.7,163,58,9.8,0.00110,0.00140,36.4,39.7,44,279,0,0.0,0.13,0.00,0.00